Location: Fort Hays State University
(38.8712°N, 99.3432°W)
Time: 21:54:05
(UTC-05:00)

Cosmos 2279 Rocket - Visible Passes

Search period start: 27 July 2016 00:00
Search period end: 06 August 2016 00:00
Orbit: 965 x 979 km, 82.9° (Epoch: 26 July)

Date Brightness Start Highest point End Pass type
(mag) Time Alt. Az. Time Alt. Az. Time Alt. Az.
27 Jul 6.1 04:03:09 10° SE 04:07:46 22° E 04:12:23 10° NE visible
27 Jul 4.3 05:46:32 10° SSW 05:52:35 52° W 05:58:41 10° N visible
28 Jul 5.2 04:26:03 10° SSE 04:31:47 40° E 04:37:33 10° NNE visible
29 Jul 4.2 04:50:12 12° S 04:55:58 73° E 05:02:12 10° N visible
30 Jul 6.3 03:31:45 10° ESE 03:35:40 18° E 03:39:35 10° NE visible
30 Jul 4.0 05:14:57 14° SSW 05:20:18 64° W 05:26:32 10° N visible
31 Jul 5.4 03:55:03 14° SE 03:59:38 32° E 04:05:04 10° NNE visible
31 Jul 4.7 05:39:40 12° SW 05:44:48 36° WNW 05:50:30 10° N visible
01 Aug 4.5 04:19:44 22° SSE 04:23:45 58° E 04:29:53 10° NNE visible
01 Aug 5.4 06:05:00 10° WSW 06:09:28 20° WNW 06:13:57 10° NNW visible
02 Aug 6.3 03:00:41 10° ESE 03:03:36 14° E 03:06:31 10° NE visible
02 Aug 3.9 04:44:24 27° SSW 04:48:02 80° W 04:54:19 10° N visible
03 Aug 5.7 03:24:25 18° SE 03:27:31 26° E 03:32:29 10° NNE visible
03 Aug 4.4 05:09:01 24° SW 05:12:28 44° WNW 05:18:25 10° N visible
04 Aug 4.8 03:49:01 31° SE 03:51:34 46° E 03:57:29 10° NNE visible
04 Aug 5.2 05:33:38 16° WSW 05:37:04 25° WNW 05:42:06 10° NNW visible
05 Aug 6.5 02:30:41 10° E 02:31:33 10° ENE 02:32:24 10° ENE visible
05 Aug 4.0 04:13:36 44° S 04:15:47 84° E 04:22:03 10° N visible
05 Aug 5.8 05:58:51 10° W 06:01:52 14° WNW 06:04:54 10° NW visible
